Tracking 30509 objects as of 21-May-2025
HD Live streaming from Space Station
objects crossing your sky now

STARLINK-2506

Track STARLINK-2506 now!
10-day predictions
STARLINK-2506 is classified as:


NORAD ID: 48315
Int'l Code: 2021-036AR
Perigee: 553.5 km
Apogee: 555.3 km
Inclination: 53.1 °
Period: 95.6 minutes
Semi major axis: 6925 km
RCS: Unknown
Launch date: April 29, 2021
Source: United States (US)
Launch site: AIR FORCE EASTERN TEST RANGE (AFETR)
Your satellite tracking list
Your tracking list is empty




NASA's NSSDC Master Catalog

Two Line Element Set (TLE):
1 48315U 21036AR  25141.48323098  .00001061  00000-0  90133-4 0  9991
2 48315  53.0553 323.3865 0001329  91.9461 268.1680 15.06387426224774
Source of the keplerian elements: AFSPC